Weather in Dolinskoye

Ukraine / Odesa District     45°28′19″N   28°19′41″E
temp.,
°C
wind,
m/s
gust,
m/s
humid.,
%
clouds,
%
prec.,
mm/h
press.,
hPa
HPBL,
m
12 may, wed
wed1200:00+15wnw22550 0.0 101512
03:00+14nw225813 0.0 101318
06:00+13wnw11641 0.0 101217
09:00+17e326575 0.0 1012461
12:00+19ese436379 0.6 10111089
15:00+19ese776053 1.8 10101112
18:00+17e896456 0.1 1010831
21:00+13ese7107237 0.1 1011510
13 may, thu
thu1300:00+11ese6108098 0.0 1011468
03:00+10ese4786100 0.0 1010219
06:00+11ese5783100 0.0 1009289
09:00+13se4691100 1.3 1009326
12:00+14ese61086100 0.8 1008747
15:00+19sse7957100 0.8 10071234
18:00+19sse5762100 0.1 1006585
21:00+14sse468323 0.1 1007118
14 may, fri
fri1400:00+12se348817 0.0 100757
03:00+12s1398100 7.9 1006167
06:00+13ssw249732 2.3 1007211
09:00+16sw610750 2.3 1008667
12:00+20sw912551 0.0 10081370
15:00+22wsw8104682 0.0 10082127
18:00+20wsw475744 0.0 1009658
21:00+18ssw226392 0.0 101017
15 may, sat
sat1500:00+17sw3568100 0.0 101081
03:00+14sw378099 0.0 1011139
06:00+12sw36910 0.0 1012114
09:00+17w23667 0.0 1012374
12:00+21ssw345091 0.0 10121101
15:00+24s344113 0.0 10101696
18:00+23se6550100 0.0 10091153
21:00+17se51072100 0.0 1009248
16 may, sun
sun1600:00+15ese4981100 0.0 1009219
03:00+14e3689100 0.0 1009158
06:00+14e369171 0.0 1008139
09:00+18ese466789 0.0 1009566
12:00+21se2357100 0.0 10081182
15:00+22ese5651100 0.8 10061545
18:00+21e4654100 0.2 1006616
21:00+17nw477797 0.2 1006154